Location: Jackson Park
(37.2862°N, 79.9123°W)
Time: 13:58:57
(UTC+00:00)

S-56A Canister/Altair - Pass Details

Date: 13 May 2026
Orbit: 633 x 2484 km, 38.9° (Epoch: 6 June)

Event Time Altitude Azimuth Distance (km) Brightness Sun altitude
Rises 09:42:06 0° 271° (W) 3,887 - -6.3°
Exits shadow 09:43:23 - 265° (W) 3,615 10.4 -6.0°
Reaches altitude 10° 09:45:47 10° 251° (WSW) 3,240 10.1 -5.6°
Maximum altitude 09:50:28 16° 215° (SW) 3,156 10.1 -4.8°
Drops below altitude 10° 09:56:12 10° 182° (S) 4,080 11.0 -3.8°
Sets 10:01:52 0° 164° (SSE) 5,460 11.8 -2.8°
